Location: *
(51.0333°S, 178.4667°E)
Time: 10:40:19
(UTC+00:00)

STARLINK-53 - Pass Details

Date: 15 November 2019
Orbit: 529 x 530 km, 53.0° (Epoch: 12 December)

Event Time Altitude Azimuth Distance (km) Brightness Sun altitude
Rises 11:01:49 0° 252° (WSW) 2,693 7.6 -19.7°
Reaches altitude 10° 11:04:02 10° 252° (WSW) 1,801 6.6 -19.7°
Maximum altitude 11:08:08 84° 339° (NNW) 548 3.4 -19.9°
Enters shadow 11:09:18 46° 63° (ENE) 732 3.9 -19.9°
